• In Kazakhstan
  • List of Countries
  • For 7 days
  • Water Temperature
  • Satellite Maps
  • Weather Map
  • News
  • Weather Widgets
  • user-avatar
    Login

    Hourly Weather Viedma

    Today, 19 November, Monday

    Time Temperature Precipitation Wind Pressure Humidity
    00:00 +15°C° 0 mm 4 mps 755 mmHg 42%
    01:00 +15°C° 0 mm 5 mps 755 mmHg 44%
    02:00 +14°C° 0 mm 4 mps 754 mmHg 47%
    03:00 +14°C° 0 mm 5 mps 754 mmHg 46%
    04:00 +15°C° 0 mm 6 mps 754 mmHg 46%
    05:00 +15°C° 0 mm 7 mps 753 mmHg 45%
    06:00 +17°C° 0 mm 7 mps 753 mmHg 39%
    07:00 +20°C° 0 mm 8 mps 753 mmHg 34%
    08:00 +23°C° 0 mm 8 mps 753 mmHg 28%
    09:00 +24°C° 0 mm 9 mps 752 mmHg 26%
    10:00 +27°C° 0 mm 9 mps 752 mmHg 23%
    11:00 +28°C° 0 mm 10 mps 752 mmHg 21%
    12:00 +29°C° 0 mm 9 mps 751 mmHg 21%
    13:00 +31°C° 0 mm 9 mps 751 mmHg 21%
    14:00 +31°C° 0 mm 8 mps 750 mmHg 21%
    15:00 +32°C° 0 mm 8 mps 750 mmHg 20%
    16:00 +32°C° 0 mm 7 mps 749 mmHg 20%
    17:00 +32°C° 0 mm 7 mps 749 mmHg 20%
    18:00 +29°C° 0 mm 6 mps 749 mmHg 21%
    19:00 +28°C° 0 mm 6 mps 749 mmHg 23%
    20:00 +26°C° 0 mm 5 mps 749 mmHg 25%
    21:00 +25°C° 0 mm 5 mps 750 mmHg 26%
    22:00 +25°C° 0 mm 5 mps 750 mmHg 28%
    23:00 +23°C° 0 mm 5 mps 750 mmHg 29%

    Tomorrow, 20 November, Tuesday

    Time Temperature Precipitation Wind Pressure Humidity
    00:00 +22°C° 0 mm 4 mps 751 mmHg 32%
    01:00 +21°C° 0 mm 4 mps 751 mmHg 34%
    02:00 +21°C° 0 mm 4 mps 751 mmHg 36%
    03:00 +20°C° 0 mm 4 mps 751 mmHg 40%
    04:00 +19°C° 0 mm 4 mps 752 mmHg 43%
    05:00 +19°C° 0 mm 3 mps 752 mmHg 46%
    06:00 +21°C° 0 mm 3 mps 753 mmHg 41%
    07:00 +24°C° 0 mm 3 mps 753 mmHg 35%
    08:00 +26°C° 0 mm 3 mps 753 mmHg 30%
    09:00 +27°C° 0 mm 3 mps 753 mmHg 29%
    10:00 +28°C° 0 mm 3 mps 753 mmHg 27%
    11:00 +29°C° 0 mm 3 mps 753 mmHg 25%
    12:00 +30°C° 0 mm 4 mps 752 mmHg 23%
    13:00 +32°C° 0 mm 5 mps 752 mmHg 22%
    14:00 +33°C° 0 mm 6 mps 751 mmHg 20%
    15:00 +33°C° 0 mm 6 mps 751 mmHg 19%
    16:00 +33°C° 0 mm 7 mps 750 mmHg 19%
    17:00 +32°C° 0 mm 7 mps 749 mmHg 18%
    18:00 +30°C° 0 mm 6 mps 749 mmHg 19%
    19:00 +29°C° 0 mm 6 mps 749 mmHg 20%
    20:00 +28°C° 0 mm 5 mps 749 mmHg 20%
    21:00 +27°C° 0 mm 6 mps 749 mmHg 20%
    22:00 +27°C° 0 mm 6 mps 749 mmHg 19%
    23:00 +27°C° 0 mm 6 mps 749 mmHg 19%

    Day after tomorrow, 21 November, Wednesday

    Time Temperature Precipitation Wind Pressure Humidity
    00:00 +27°C° 0 mm 6 mps 749 mmHg 21%
    01:00 +26°C° 0 mm 7 mps 749 mmHg 23%
    02:00 +26°C° 0 mm 7 mps 749 mmHg 26%
    03:00 +24°C° 0 mm 7 mps 749 mmHg 28%
    04:00 +23°C° 0 mm 6 mps 749 mmHg 31%
    05:00 +22°C° 0 mm 6 mps 749 mmHg 33%
    06:00 +23°C° 0 mm 7 mps 749 mmHg 33%
    07:00 +26°C° 0 mm 8 mps 749 mmHg 32%
    08:00 +27°C° 0 mm 9 mps 749 mmHg 32%
    09:00 +28°C° 0 mm 9 mps 749 mmHg 30%
    10:00 +31°C° 0 mm 10 mps 749 mmHg 29%
    11:00 +32°C° 0 mm 11 mps 749 mmHg 28%
    12:00 +33°C° 0 mm 11 mps 748 mmHg 26%
    13:00 +34°C° 0 mm 11 mps 747 mmHg 25%
    14:00 +36°C° 0 mm 12 mps 746 mmHg 24%
    15:00 +36°C° 0 mm 12 mps 746 mmHg 23%
    16:00 +36°C° 0 mm 11 mps 745 mmHg 22%
    17:00 +37°C° 0 mm 11 mps 744 mmHg 21%
    18:00 +34°C° 0 mm 9 mps 744 mmHg 23%
    19:00 +33°C° 0 mm 8 mps 744 mmHg 25%
    20:00 +30°C° 0 mm 6 mps 745 mmHg 27%
    21:00 +31°C° 0 mm 8 mps 745 mmHg 28%
    22:00 +29°C° 0 mm 9 mps 746 mmHg 29%
    23:00 +29°C° 0 mm 11 mps 747 mmHg 30%

    22 November, Thursday

    Time Temperature Precipitation Wind Pressure Humidity
    00:00 +26°C° 0 mm 12 mps 748 mmHg 39%
    01:00 +22°C° 0 mm 13 mps 748 mmHg 48%
    02:00 +18°C° 0 mm 14 mps 749 mmHg 57%
    03:00 +15°C° 0 mm 13 mps 751 mmHg 57%
    04:00 +14°C° 0 mm 13 mps 753 mmHg 56%
    05:00 +13°C° 0 mm 13 mps 754 mmHg 56%
    06:00 +13°C° 0 mm 12 mps 756 mmHg 56%
    07:00 +13°C° 0 mm 11 mps 757 mmHg 56%
    08:00 +13°C° 0 mm 10 mps 759 mmHg 57%
    09:00 +14°C° 0 mm 10 mps 759 mmHg 52%
    10:00 +16°C° 0 mm 9 mps 760 mmHg 48%
    11:00 +17°C° 0 mm 8 mps 761 mmHg 43%
    12:00 +17°C° 0 mm 7 mps 761 mmHg 41%
    13:00 +17°C° 0 mm 6 mps 761 mmHg 39%
    14:00 +17°C° 0 mm 5 mps 761 mmHg 36%
    15:00 +17°C° 0 mm 5 mps 762 mmHg 36%
    16:00 +18°C° 0 mm 4 mps 762 mmHg 35%
    17:00 +17°C° 0 mm 4 mps 762 mmHg 35%
    18:00 +15°C° 0 mm 4 mps 762 mmHg 39%
    19:00 +14°C° 0 mm 4 mps 763 mmHg 43%
    20:00 +13°C° 0 mm 4 mps 763 mmHg 47%
    21:00 +13°C° 0 mm 4 mps 763 mmHg 51%
    22:00 +12°C° 0 mm 5 mps 763 mmHg 56%
    23:00 +10°C° 0 mm 5 mps 763 mmHg 60%

    23 November, Friday

    Time Temperature Precipitation Wind Pressure Humidity
    00:00 +10°C° 0 mm 5 mps 763 mmHg 63%
    01:00 +10°C° 0 mm 5 mps 763 mmHg 65%
    02:00 +10°C° 0 mm 5 mps 763 mmHg 67%
    03:00 +9°C° 0 mm 5 mps 763 mmHg 69%
    04:00 +9°C° 0 mm 5 mps 763 mmHg 71%
    05:00 +9°C° 0 mm 5 mps 763 mmHg 72%
    06:00 +12°C° 0 mm 5 mps 763 mmHg 63%
    07:00 +14°C° 0 mm 5 mps 763 mmHg 53%
    08:00 +15°C° 0 mm 6 mps 763 mmHg 44%
    09:00 +17°C° 0 mm 6 mps 763 mmHg 37%
    10:00 +20°C° 0 mm 6 mps 763 mmHg 31%
    11:00 +22°C° 0 mm 6 mps 763 mmHg 24%
    12:00 +22°C° 0 mm 6 mps 762 mmHg 24%
    13:00 +23°C° 0 mm 7 mps 761 mmHg 25%
    14:00 +23°C° 0 mm 7 mps 761 mmHg 25%
    15:00 +22°C° 0 mm 8 mps 760 mmHg 28%
    16:00 +21°C° 0 mm 9 mps 760 mmHg 30%
    17:00 +19°C° 0 mm 9 mps 760 mmHg 33%
    18:00 +18°C° 0 mm 9 mps 760 mmHg 40%
    19:00 +16°C° 0 mm 9 mps 760 mmHg 46%
    20:00 +13°C° 0 mm 9 mps 760 mmHg 52%
    21:00 +13°C° 0 mm 9 mps 760 mmHg 55%
    22:00 +13°C° 0 mm 9 mps 760 mmHg 57%
    23:00 +13°C° 0 mm 9 mps 759 mmHg 60%

    24 November, Saturday

    Time Temperature Precipitation Wind Pressure Humidity
    00:00 +13°C° 0 mm 9 mps 759 mmHg 61%
    01:00 +13°C° 0 mm 9 mps 759 mmHg 62%
    02:00 +13°C° 0 mm 9 mps 758 mmHg 62%
    03:00 +13°C° 0 mm 8 mps 758 mmHg 63%
    04:00 +14°C° 0 mm 7 mps 758 mmHg 63%
    05:00 +12°C° 0 mm 7 mps 758 mmHg 63%
    06:00 +15°C° 0 mm 7 mps 759 mmHg 58%
    07:00 +17°C° 0 mm 8 mps 759 mmHg 53%
    08:00 +20°C° 0 mm 8 mps 759 mmHg 48%
    09:00 +22°C° 0 mm 7 mps 759 mmHg 42%
    10:00 +24°C° 0 mm 7 mps 759 mmHg 37%
    11:00 +27°C° 0 mm 6 mps 759 mmHg 31%
    12:00 +27°C° 0 mm 6 mps 758 mmHg 30%
    13:00 +28°C° 0 mm 5 mps 758 mmHg 29%
    14:00 +28°C° 0 mm 5 mps 757 mmHg 29%
    15:00 +27°C° 0 mm 5 mps 757 mmHg 31%
    16:00 +27°C° 0 mm 6 mps 757 mmHg 34%
    17:00 +26°C° 0 mm 7 mps 756 mmHg 37%
    18:00 +24°C° 0 mm 8 mps 757 mmHg 40%
    19:00 +22°C° 0 mm 8 mps 757 mmHg 43%
    20:00 +21°C° 0 mm 9 mps 757 mmHg 46%
    21:00 +21°C° 0 mm 9 mps 757 mmHg 46%
    22:00 +21°C° 0 mm 9 mps 757 mmHg 46%
    23:00 +22°C° 0 mm 9 mps 757 mmHg 46%
    Show more